Location: Newark
(2.6153°S, 29.9989°E)
Time: 23:21:41
(UTC+00:00)

N. Korean satellite - Pass Details

Date: 30 August 2019
Orbit: 455 x 508 km, 97.2° (Epoch: 23 October)

Event Time Altitude Azimuth Distance (km) Brightness Sun altitude
Rises 16:24:06 0° 200° (SSW) 2,591 10.4 -6.2°
Reaches altitude 10° 16:26:58 10° 225° (SW) 1,712 9.9 -6.9°
Maximum altitude 16:28:59 14° 258° (WSW) 1,468 10.2 -7.4°
Drops below altitude 10° 16:31:00 10° 292° (WNW) 1,715 10.9 -7.9°
Sets 16:33:53 0° 317° (NW) 2,598 11.2 -8.6°
